Location: Bois de la Silve
(44.4667°N, 6.7833°E)
Time: 08:31:08
(UTC+00:00)

Okean 1 - Pass Details

Date: 14 July 2020
Orbit: 538 x 555 km, 82.5° (Epoch: 14 August)

Event Time Altitude Azimuth Distance (km) Brightness Sun altitude
Rises 00:17:03 0° 357° (N) 2,707 8.2 -23.3°
Reaches altitude 10° 00:19:17 10° 4° (N) 1,811 7.1 -23.3°
Maximum altitude 00:23:07 44° 77° (ENE) 759 4.1 -23.1°
Enters shadow 00:23:30 42° 96° (E) 777 4.0 -23.1°
